Location: Naples
(26.1420°N, 81.7950°W)
Time: 21:42:53
(UTC-04:00)

Tiangong - Visible Passes

Search period start: 09 May 2026 00:00
Search period end: 19 May 2026 00:00
Orbit: 378 x 385 km, 41.5° (Epoch: 9 May)

Date Brightness Start Highest point End Pass type
(mag) Time Alt. Az. Time Alt. Az. Time Alt. Az.
12 May 1.2 05:52:18 10° N 05:52:49 10° NNE 05:53:20 10° NNE visible
14 May 0.9 05:26:16 10° NNW 05:28:16 16° NNE 05:30:16 10° ENE visible
15 May -1.3 06:01:20 10° NW 06:04:26 52° NNE 06:07:30 10° ESE visible
16 May 0.1 05:00:49 10° NNW 05:03:30 25° NNE 05:06:11 10° E visible
16 May 0.0 21:29:28 10° SSW 21:30:19 16° SSW 21:30:19 16° SSW visible
17 May 1.4 04:04:07 11° ENE 04:04:07 11° ENE 04:04:22 10° ENE visible
17 May -2.3 05:36:21 10° WNW 05:39:26 68° SW 05:42:32 10° SE visible
17 May -0.4 20:29:40 10° S 20:31:34 15° SE 20:33:28 10° E visible
17 May -0.2 22:05:08 10° WSW 22:06:56 28° W 22:06:56 28° W visible
18 May 0.1 04:40:12 22° E 04:40:12 22° E 04:41:34 10° ESE visible
18 May -2.3 21:04:03 10° SW 21:07:09 82° SE 21:10:17 10° ENE visible
18 May 1.4 22:42:30 10° NW 22:43:04 12° NW 22:43:04 12° NW visible
